Regional Weather Roundup
Issued by NWS San Diego, CA

Current Version | Previous Version | Text Only | Print | Product List | Glossary On
Versions: 1 2 3 4 5 6 7 8 9 10 11 12 13 14 15 16 17 18 19 20 21 22 23 24 25 26 27 28 29 30 31 32 33 34 35 36 37 38 39 40 41 42 43 44 45 46 47 48 49 50
000
ASUS46 KSGX 052311
RWRSGX

SAN DIEGO HOURLY WEATHER ROUNDUP
NATIONAL WEATHER SERVICE SAN DIEGO CA
300 PM PST THU DEC 05 2019

NOTE: "FAIR" INDICATES FEW OR NO CLOUDS BELOW 12,000 FEET WITH NO
SIGNIFICANT WEATHER AND/OR OBSTRUCTIONS TO VISIBILITY.

CAZ042-043-060-061-PZZ750-775-060000-

GREATER SAN DIEGO AREA

CITY           SKY/WX    TMP DP  RH WIND       PRES   REMARKS
SAN DIEGO AP   PTSUNNY   67  59  75 NW8       30.09R
NATIONAL CITY    N/A     67   1   7 CALM      30.08R
CHULA VISTA      N/A     67  57  71 W8        29.99R
BROWN FIELD    MOSUNNY   64  53  67 W8        30.07R
MIRAMAR MCAS   PTSUNNY   67  53  61 W8        30.07R
MONTGOMERY FLD PTSUNNY   65  53  65 W9        30.08R
GILLESPIE FLD  SUNNY     66  55  68 W13       30.07R

$$

NORTH SAN DIEGO COUNTY

CITY           SKY/WX    TMP DP  RH WIND       PRES   REMARKS
CAMP PENDLETON PTSUNNY   66  52  60 W7        30.07R
OCEANSIDE AP   MOSUNNY   65  53  65 W9        30.07R
OCEANSIDE HBR    N/A     62  57  82 W2        30.10R
VISTA            N/A     64  55  73 CALM      30.05S
CARLSBAD       PTSUNNY   63  54  72 VRB5      30.07R
DEL MAR          N/A     66  59  79 W2        30.09R
LA JOLLA SCRIP   N/A     62  57  82 W3        30.08R
FALLBROOK      FAIR      66  48  52 CALM      30.08S
ESCONDIDO        N/A     67  54  63 CALM      30.07R
SAN MARCOS       N/A     65  55  69 NW5       30.11R
POWAY            N/A     67  56  66 CALM      30.07S

$$

EAST SAN DIEGO COUNTY

CITY           SKY/WX    TMP DP  RH WIND       PRES   REMARKS
RAMONA         PTSUNNY   65  48  54 W7        30.08R
SANTEE LAKES     N/A     67  56  69 W7        30.05R
LA MESA          N/A     65  56  72 W3        30.02R
JAMUL            N/A     65  51  59 S2        30.07R
DESCANSO N       N/A     57  47  67 SW2       30.05R
MT. LAGUNA OBS   N/A     56  45  66 SW9       30.08S
CAMPO            N/A     63  45  51 SW5       30.05R

$$

ORANGE COUNTY AND THE LOS ANGELES BASIN

CITY           SKY/WX    TMP DP  RH WIND       PRES   REMARKS
JOHN WAYNE AP  MOSUNNY   67  52  58 W3        30.07S
LAGUNA BEACH     N/A     64  58  80 CALM      30.06F
LAKE FOREST FR   N/A     64  49  58 NW2       29.97R
HUNTINGTON BCH   N/A     65  58  78 W3        30.08F
FULLERTON      MOSUNNY   68  47  46 SW3       30.07S
LONG BEACH     MOSUNNY   65  51  60 SW5       30.08S
L.A. AP        PTSUNNY   64  52  64 SW9       30.09S
L.A. DOWNTOWN  MOSUNNY   68  48  48 CALM      30.08R

$$

THE INLAND EMPIRE

CITY           SKY/WX    TMP DP  RH WIND       PRES   REMARKS
CORONA         MOSUNNY   66  51  58 CALM      30.09S
CHINO          PTSUNNY   66  48  52 CALM      30.09S
ONTARIO        CLOUDY    65  47  52 VRB5      30.08S
SAN BERNARDINO MOSUNNY   64  45  48 CALM      30.08F
RIVERSIDE AP   MOSUNNY   64  44  48 CALM      30.08S
MORENO VALLEY    N/A     63  56  78 CALM      30.07F
HORSETHIEF CYN   N/A     61  48  61 N2        30.10S
PERRIS           N/A     61  51  67 S1        30.12R
HEMET EAST       N/A     62  46  55 CALM      30.12S
FRENCH VALLEY  FAIR      63  43  48 CALM      30.09R
TEMECULA         N/A     64  52  66 NW2       30.04S

$$

SAN BERNARDINO AND RIVERSIDE COUNTY MOUNTAINS

CITY           SKY/WX    TMP DP  RH WIND       PRES   REMARKS
BIG BEAR AP    MOSUNNY   43  36  75 NE3       30.16S
ANGELUS OAKS     N/A     42  40  91 CALM      30.12S

$$

SOUTHERN DESERT INCLUDING THE COACHELLA VALLEY

CITY           SKY/WX    TMP DP  RH WIND       PRES   REMARKS
PALM SPRINGS   PTSUNNY   67  48  50 SE6       30.10S
THOUSAND PALMS   N/A     67  51  56 E5        30.06R
PALM DESERT      N/A     67  51  56 E3          N/A
THERMAL        MOSUNNY   67  50  54 CALM      30.08R
BORREGO AP     FAIR      64  50  59 E6        30.10R
BLYTHE         SUNNY     65  50  58 N6        30.11R
IMPERIAL AP    SUNNY     67  51  56 E6        30.08R
EL CENTRO NAS  PTSUNNY   67  50  54 NE3       30.10S
YUMA AZ        MOSUNNY   68  50  52 NE7       30.08S
MEXICALI       MOSUNNY   68  50  52 CALM      30.10R

$$

UPPER DESERT

CITY           SKY/WX    TMP DP  RH WIND       PRES   REMARKS
VICTORVILLE AP MOSUNNY  N/A N/A N/A CALM      30.13F
HESPERIA         N/A     57  44  60 E1        30.19S
APPLE VALLEY     N/A     56  45  66 NE3       30.20S
PALMDALE       CLOUDY    54  42  64 CALM      30.14S
LANCASTER      MOSUNNY   54  43  66 E5        30.14S
DAGGETT        SUNNY     58  44  60 CALM      30.14R
29 PALMS N     MOSUNNY   55  46  71 CALM      30.20S
NEEDLES        MOSUNNY   65  49  56 NE3       30.11S

$$

REGIONAL REPORTS

CITY           SKY/WX    TMP DP  RH WIND       PRES   REMARKS
SANTA BARBARA  PTSUNNY   62  56  80 SE7       30.09S
SANDBERG       CLOUDY    45  40  82 NE8       30.14R
LAS VEGAS NV   PTSUNNY   59  43  55 E6        30.13R
PHOENIX AZ     PTSUNNY   69  46  43 VRB3      30.06S
TIJUANA        PTSUNNY   64  52  63 W9        30.10R
ENSENADA NW      N/A     65  32  29 W7        30.04S

$$

OFFSHORE ISLANDS

CITY           SKY/WX    TMP DP  RH WIND       PRES   REMARKS
CATALINA ARPT  MOSUNNY   56  52  86 NW3       30.10S
SAN CLEMENTE I PTSUNNY   63  49  60 SE3       30.11R
SAN NICOLAS IS PTSUNNY   59  53  80 SE6       30.09S

$$

MARINE AND OFFSHORE BUOY REPORTS

STATION/POSITION SKY/WX   TEMP    WIND        PRES    VSBY  SWELL
                          AIR SEA DIR/SP/G                  HT/PER/DIR
                          (F)     (DEG/KT/KT) (MB)    (MI)  (FT/S/D)
TANNER BANKS               61 61   90/  4/  6 1018.5F         5/300/15
S CLEMENTE BASIN           62 64  330/  2/  2 1018.9R         3/240/14
SAN NICOLAS IS.               62                N/A           5/280/13
SO. S. ROSA ISLA           59 60   80/  8/ 10 1018.9F         5/300/14
W. S. BARBARA CH           59 60  110/ 10/ 14 1018.7R         5/290/13
M. S. BARBARA CH           60 60  140/ 10/ 12 1019.2F         3/170/13
S. MONICA BASIN            61 62  130/  4/  6 1019.4F         3/200/13
S PEDRO CHANNEL               63                N/A           2/190/13
OCEANSIDE OFFSHR              63                N/A           2/210/13
TORREY PINES OTR              61                N/A           2/210/13
SAN DIEGO BAY                 62              1017.9S
IMPERIAL BEACH                62                N/A           2/260/13
POINT LOMA SOUTH              64                N/A           2/230/13

$$




USA.gov is the U.S. government's official web portal to all federal, state and local government web resources and services.